This is the latest recevied weather packets stored in our database for station/object E7HQ-1. If no packets are shown the sender has not sent any weather packets the latest 10 day(s).
| Time | Temp. | Humidity | Pressure | Rain* | Wind** | Luminosity | Snow |
|---|---|---|---|---|---|---|---|
| 1778048038 | 15.56° C | 49% | 1025.5 hPa | - | - | - | - |
| 1778047137 | 13.89° C | 50% | 1025.6 hPa | - | - | - | - |
| 1778046236 | 13.89° C | 50% | 1025.6 hPa | - | - | - | - |
| 1778045342 | 12.78° C | 52% | 1025.7 hPa | - | - | - | - |
| 1778044442 | 12.22° C | 53% | 1025.5 hPa | - | - | - | - |
| 1778043542 | 11.67° C | 53% | 1025.6 hPa | - | - | - | - |
| 1778042642 | 11.67° C | 52% | 1025.7 hPa | - | - | - | - |
| 1778041741 | 12.22° C | 51% | 1025.7 hPa | - | - | - | - |
| 1778040841 | 12.22° C | 53% | 1025.8 hPa | - | - | - | - |
| 1778039941 | 11.67° C | 51% | 1025.7 hPa | - | - | - | - |
| 1778039041 | 11.67° C | 51% | 1025.7 hPa | - | - | - | - |
| 1778038141 | 12.22° C | 51% | 1025.6 hPa | - | - | - | - |
| 1778037240 | 12.22° C | 51% | 1025.6 hPa | - | - | - | - |
| 1778036340 | 12.22° C | 51% | 1025.4 hPa | - | - | - | - |
| 1778035440 | 12.78° C | 53% | 1025.5 hPa | - | - | - | - |
| 1778034540 | 12.22° C | 51% | 1025.5 hPa | - | - | - | - |
| 1778033639 | 12.22° C | 52% | 1025.5 hPa | - | - | - | - |
| 1778032739 | 11.67° C | 50% | 1025.7 hPa | - | - | - | - |
| 1778031839 | 12.22° C | 49% | 1025.6 hPa | - | - | - | - |
| 1778030939 | 12.22° C | 49% | 1025.6 hPa | - | - | - | - |
| 1778030038 | 12.22° C | 49% | 1025.5 hPa | - | - | - | - |
| 1778029138 | 12.22° C | 47% | 1025.3 hPa | - | - | - | - |
| 1778028238 | 12.22° C | 45% | 1025.4 hPa | - | - | - | - |
| 1778027338 | 12.78° C | 45% | 1025.3 hPa | - | - | - | - |
| 1778026437 | 12.78° C | 46% | 1025.2 hPa | - | - | - | - |
* Rain since midnight (hover to see other rain measurements)
** Current wind speed in m/s (hover to see current wind gust speed)